Weather History for Nassau Airport, Bahamas

Change the Weather History Date:

Wednesday, August 8, 2012

  Actual Average Record
Temperature  
Mean Temperature 85 °F -  
Max Temperature 91 °F 89 °F - ()
Min Temperature 79 °F 75 °F - ()
Cooling Degree Days 20    
Growing Degree Days 35 (Base 50)    
Moisture  
Dew Point 75 °F    
Average Humidity 72    
Maximum Humidity 84    
Minimum Humidity 49    
Precipitation  
Precipitation 0.00 in 0.27 in - ()
Sea Level Pressure  
Sea Level Pressure 30.02 in    
Wind  
Wind Speed 4 mph ()    
Max Wind Speed 12 mph    
Max Gust Speed -    
Visibility 6.7 miles    
Events Rain    
T = Trace of Precipitation, MM = Missing Value Source: Averaged Metar Reports

Daily Weather History Graph

Daily Weather History Graph

Search for Another Location

Airport:

Trip Planner

Search our weather history database for the weather conditions in past years. The results will help you decide how hot, cold, wet, or windy it might be!

Date:

Astronomy

Aug. 08, 2012 Rise Set
Actual Time 6:40 AM EDT 7:49 PM EDT
Civil Twilight 6:16 AM EDT 8:13 PM EDT
Nautical Twilight 5:48 AM EDT 8:42 PM EDT
Astronomical Twilight 5:18 AM EDT 9:11 PM EDT
Moon 11:54 PM EDT (8/8) 12:34 PM EDT (8/8)
Length of Visible Light 13h 57m
Length of Day
13h 08m
Waning Gibbous, 61% of the Moon is Illuminated
Aug 8
Waning Gibbous
Aug 9
Last Quarter
Aug 17
New
Aug 24
First Quarter
Aug 31
Full

Hourly Weather History & Observations

Time (EDT) Temp. Heat Index Dew Point Humidity Pressure Visibility Wind Dir Wind Speed Gust Speed Precip Events Conditions
12:00 AM 82.4 °F 89.5 °F 75.2 °F 79% 30.04 in 6.2 mi East 2.3 mph - N/A   Partly Cloudy
1:00 AM 82.4 °F 89.5 °F 75.2 °F 79% 30.03 in 6.2 mi East 3.5 mph - N/A   Partly Cloudy
2:00 AM 82 °F - 76 °F 76% 30.02 in 9 mi East 2.3 mph - -   Scattered Clouds
2:00 AM 82.4 °F 89.5 °F 75.2 °F 79% 30.01 in 6.2 mi East 2.3 mph - N/A   Partly Cloudy
3:00 AM 82.4 °F 89.5 °F 75.2 °F 79% 30.00 in 6.2 mi East 3.5 mph - N/A   Partly Cloudy
4:00 AM 80.6 °F 86.2 °F 75.2 °F 84% 30.00 in 6.2 mi ESE 3.5 mph - N/A   Partly Cloudy
5:00 AM 81 °F - 75 °F 78% 29.99 in 9 mi East 2.3 mph - -   Scattered Clouds
5:00 AM 80.6 °F 86.2 °F 75.2 °F 84% 29.99 in 6.2 mi East 2.3 mph - N/A   Partly Cloudy
6:00 AM 80.6 °F 86.2 °F 75.2 °F 84% 29.98 in 6.2 mi East 3.5 mph - N/A   Partly Cloudy
7:00 AM 80.6 °F 86.2 °F 75.2 °F 84% 29.99 in 6.2 mi Calm Calm - N/A   Scattered Clouds
8:00 AM 84 °F - 75 °F 67% 30.02 in 9 mi East 3.5 mph - -   Partly Cloudy
8:00 AM 84.2 °F 92.3 °F 75.2 °F 74% 30.02 in 6.2 mi East 3.5 mph - N/A   Scattered Clouds
9:00 AM 84.2 °F 90.9 °F 73.4 °F 70% 30.03 in 6.2 mi ENE 3.5 mph - N/A   Scattered Clouds
10:00 AM 86.0 °F 95.1 °F 75.2 °F 70% 30.03 in 6.2 mi East 10.4 mph - N/A   Scattered Clouds
11:00 AM 87.8 °F 99.7 °F 77.0 °F 70% 30.04 in 6.2 mi ESE 11.5 mph - N/A   Scattered Clouds
12:00 PM 87.8 °F 95.6 °F 73.4 °F 62% 30.04 in 6.2 mi East 8.1 mph - N/A   Scattered Clouds
1:00 PM 87.8 °F 95.6 °F 73.4 °F 62% 30.03 in 6.2 mi East 8.1 mph - N/A   Scattered Clouds
2:00 PM 91 °F - 74 °F 49% 30.03 in 9 mi East 3.5 mph - -   Mostly Cloudy
2:00 PM 91.4 °F 100.1 °F 73.4 °F 55% 30.03 in 6.2 mi East 3.5 mph - N/A   Scattered Clouds
3:00 PM 87.8 °F 97.6 °F 75.2 °F 66% 30.03 in 6.2 mi East 5.8 mph - N/A   Scattered Clouds
4:00 PM 87.8 °F 97.6 °F 75.2 °F 66% 30.01 in 6.2 mi ENE 9.2 mph - N/A   Scattered Clouds
5:00 PM 87 °F - 80 °F 73% 30.01 in 8 mi ESE 4.6 mph - -   Partly Cloudy
5:00 PM 86.0 °F 95.1 °F 75.2 °F 70% 30.01 in 6.2 mi ESE 4.6 mph - N/A   Scattered Clouds
6:00 PM 86.0 °F 95.1 °F 75.2 °F 70% 29.99 in 6.2 mi SE 11.5 mph - N/A   Partly Cloudy
7:00 PM 86.0 °F 95.1 °F 75.2 °F 70% 30.00 in 6.2 mi SE 4.6 mph - N/A   Partly Cloudy
8:00 PM 86 °F - 74 °F 59% 30.00 in 8 mi ENE 3.5 mph - -   Scattered Clouds
8:00 PM 86.0 °F 93.4 °F 73.4 °F 66% 30.00 in 6.2 mi ENE 3.5 mph - N/A   Partly Cloudy
9:00 PM 84.2 °F 94.1 °F 77.0 °F 79% 30.03 in 5.6 mi East 4.6 mph - N/A Rain Light Rain Showers
10:00 PM 84.2 °F 94.1 °F 77.0 °F 79% 30.04 in 6.2 mi ESE 3.5 mph - N/A   Scattered Clouds
11:00 PM 84 °F - 77 °F 74% 30.06 in 9 mi East 3.5 mph - -   Partly Cloudy
11:00 PM 84.2 °F 94.1 °F 77.0 °F 79% 30.05 in 6.2 mi East 3.5 mph - N/A   Scattered Clouds